Hovedside
METAR-TAF:

METAR-TAF

Lufthavner :

Storuman, Sverige

Storumans lufthavn

breddegrad: 64-57-39N, lengdegrad: 017-41-47E, høyde over havet: 279 m

Gjeldene værobservasjon

Denne rapporten ble laget for 38 minutter siden, klokken 11:20 UTC
Flau vind
Temperatur 1°C
Luftfuktighet 86%
Trykk 1020 hPa
Sikt 10 km eller mer

METAR: ESUD 221120Z AUTO 00000KT 9999 BKN008/// BKN013/// OVC016/// 01/M01 Q1020

Tid: 13:58 (11:58 UTC)


TAF: fraværende

Værobservasjoner og værvarsel for over 4000 flyplasser (METAR- og TAF-rapporter).

Tilgjengelige stasjoner er representert av de røde og gule prikkene på kartet.

Hold musepekeren over prikken for å se navnet på stasjonen.

Klikk så for å se værobservasjoner og -varsler.

For å forandre kartet kan du klikke på den grønne knappen med svart kryss for å zoome inn, på den grønne knappen med strek for å zoome ut, eller på de grønne pilene for å se tilstøtende kart.


METAR-TAF: